Home > Time Zones > World Clock > Weather > U.S.A. > Gary > Past weeks

Flag for U.S.A. Weather past 2 weeks in Gary, Indiana, U.S.A.

Now
26 °F

Light snow. Mostly cloudy.


Feels Like: 19 °F
Forecast: 23 / 29 °F
Wind: 6 mph from South

Location: Lansing Municipal Airport

Current Time: Jan 26, 2015 at 8:13:52 PM

Latest Report: Jan 26, 2015 at 7:55 PM


Visibility: 5 mi

Pressure: 29.91 "Hg

Humidity: 95%

Dew point: 25 °F

Location of GaryLocation

Historic Weather in Gary — Graph

°F

Gary temperature yesterday

Maximum temperature yesterday: 35 °F (at 8:15 AM)
Minimum temperature yesterday: 25 °F (at 11:55 PM)
Average temperature yesterday: 31 °F

Past Weeks' High & Low Weather Summary

 TemperatureHumidityPressure
High43 °F (Jan 24, 1:55 PM)100% (Jan 19, 9:55 AM)30.73 "Hg (Jan 19, 9:55 AM)
Low-8 °F (Jan 14, 5:15 AM)62% (Jan 13, 1:15 PM)29.63 "Hg (Jan 17, 2:35 PM)
Average27 °F83%30.08 "Hg
* Reported Jan 11 6:15 PM — Jan 26 6:55 PM, Gary, Weather by CustomWeather, © 2014

Note: Actual official high and low records may vary slightly from our data, if they occured in-between our weather recording intervals... More about our weather records

Advertising

Gary weather history for previous 24 hours

 ConditionsComfort  
Time TempWeatherWind HumidityBarometerVisibility
6:55 PM
Jan 26
26 °FOvercast.5 mph88%29.92 "Hg10 mi
6:35 PM26 °FOvercast.5 mph87%29.92 "Hg7 mi
6:15 PM26 °FLight snow. Mostly cloudy.5 mph86%29.92 "Hg7 mi
5:55 PM27 °FLight snow. Overcast.6 mph84%29.91 "Hg7 mi
5:35 PM27 °FLight snow. Mostly cloudy.7 mph80%29.91 "Hg10 mi
5:15 PM27 °FMostly cloudy.6 mph82%29.90 "Hg10 mi
4:55 PM27 °FMostly cloudy.5 mph83%29.89 "Hg10 mi
4:35 PM27 °FMostly cloudy.5 mph82%29.89 "Hg10 mi
4:15 PM27 °FOvercast.5 mph82%29.89 "Hg10 mi
3:55 PM26 °FCloudy.5 mph83%29.88 "Hg10 mi
3:15 PM27 °FLight snow. Cloudy.3 mph84%29.88 "Hg4 mi
2:55 PM26 °FLight snow. Mostly cloudy.No wind83%29.89 "Hg2 mi
2:35 PM27 °FLight snow. Mostly cloudy.6 mph79%29.89 "Hg4 mi
2:15 PM27 °FMostly cloudy.5 mph77%29.89 "Hg10 mi
1:55 PM27 °FMostly cloudy.6 mph78%29.88 "Hg10 mi
1:35 PM27 °FOvercast.5 mph77%29.89 "Hg10 mi
1:15 PM26 °FOvercast.8 mph77%29.90 "Hg10 mi
12:55 PM26 °FMostly cloudy.6 mph76%29.90 "Hg10 mi
12:15 PM25 °FScattered clouds.6 mph75%29.92 "Hg10 mi
11:55 AM25 °FBroken clouds.7 mph75%29.92 "Hg10 mi
11:35 AM24 °FMostly cloudy.6 mph74%29.93 "Hg10 mi
11:15 AM24 °FOvercast.5 mph74%29.94 "Hg10 mi
10:55 AM23 °FOvercast.5 mph74%29.95 "Hg10 mi
10:15 AM22 °FOvercast.5 mph73%29.97 "Hg10 mi
9:55 AM22 °FOvercast.3 mph71%29.97 "Hg10 mi
9:35 AM20 °FPartly sunny.3 mph74%29.98 "Hg10 mi
9:15 AM19 °FSunny.5 mph76%29.97 "Hg10 mi
8:55 AM18 °FSunny.3 mph79%29.97 "Hg10 mi
8:15 AM17 °FSunny.No wind82%29.99 "Hg10 mi
7:55 AM15 °FSunny.No wind84%29.97 "Hg10 mi
7:15 AM15 °FSunny.3 mph85%29.97 "Hg10 mi
6:55 AM15 °FSunny.No wind85%29.98 "Hg10 mi
6:35 AM16 °FSunny.No wind84%29.98 "Hg10 mi
6:15 AM16 °FSunny.No wind85%29.97 "Hg10 mi
5:55 AM17 °FClear.No wind85%29.97 "Hg10 mi
5:35 AM16 °FClear.No wind85%29.97 "Hg10 mi
5:15 AM17 °FClear.No wind81%29.97 "Hg10 mi
4:55 AM17 °FClear.No wind80%29.97 "Hg10 mi
4:35 AM17 °FClear.5 mph84%29.97 "Hg10 mi
4:15 AM18 °FPassing clouds.6 mph85%29.97 "Hg10 mi
3:55 AM20 °FPassing clouds.No wind82%29.98 "Hg10 mi
3:35 AM20 °FPassing clouds.No wind81%29.97 "Hg10 mi
3:15 AM21 °FClear.No wind79%29.97 "Hg10 mi
2:55 AM21 °FPassing clouds.3 mph79%29.96 "Hg10 mi
2:35 AM22 °FPassing clouds.6 mph77%29.98 "Hg10 mi
2:15 AM22 °FOvercast.6 mph78%29.99 "Hg10 mi
1:55 AM23 °FOvercast.7 mph77%29.99 "Hg10 mi
1:15 AM24 °FOvercast.8 mph77%29.98 "Hg10 mi
12:55 AM24 °FOvercast.8 mph76%29.97 "Hg10 mi
12:35 AM24 °FOvercast.12 mph77%29.96 "Hg10 mi
12:15 AM24 °FOvercast.12 mph77%29.96 "Hg10 mi
11:55 PM
Jan 25
25 °FOvercast.9 mph77%29.97 "Hg10 mi
11:35 PM25 °FOvercast.12 mph76%29.98 "Hg10 mi
11:15 PM25 °FOvercast.12 mph76%29.97 "Hg10 mi
10:55 PM25 °FOvercast.12 mph76%29.97 "Hg10 mi
10:35 PM26 °FOvercast.14 mph76%29.97 "Hg10 mi
10:15 PM26 °FOvercast.12 mph77%29.97 "Hg10 mi
9:55 PM26 °FOvercast.13 mph77%29.97 "Hg10 mi
9:15 PM27 °FOvercast.13 mph76%29.97 "Hg10 mi
8:55 PM27 °FOvercast.13 mph76%29.97 "Hg10 mi
8:35 PM27 °FMostly cloudy.12 mph76%29.96 "Hg10 mi
8:15 PM27 °FOvercast.12 mph76%29.95 "Hg10 mi
Weather by CustomWeather, © 2014

See weather overviewHow to use our weather pages